This is the latest recevied weather packets stored in our database for station/object KC4GS-13. If no packets are shown the sender has not sent any weather packets the latest 10 day(s).
| Time | Temp. | Humidity | Pressure | Rain* | Wind** | Luminosity | Snow |
|---|---|---|---|---|---|---|---|
| 1788046579 | 27.78° C | 79% | 1020.7 hPa | 0 mm | - | 12 W/m² | - |
| 1788046274 | 28.33° C | 78% | 1020.5 hPa | 0 mm | - | 16 W/m² | - |
| 1788045972 | 28.33° C | 78% | 1020.6 hPa | 0 mm | - | 18 W/m² | - |
| 1788045668 | 28.33° C | 78% | 1020.8 hPa | 0 mm | - | 18 W/m² | - |
| 1788045361 | 28.33° C | 78% | 1020.8 hPa | 0 mm | - | 18 W/m² | - |
| 1788045057 | 28.89° C | 77% | 1020.6 hPa | 0 mm | - | 31 W/m² | - |
| 1788044756 | 28.33° C | 77% | 1020.5 hPa | 0 mm | - | 37 W/m² | - |
| 1788044451 | 28.89° C | 77% | 1020.7 hPa | 0 mm | - | 35 W/m² | - |
| 1788044151 | 28.89° C | 76% | 1020.5 hPa | 0 mm | - | 39 W/m² | - |
| 1788043847 | 28.89° C | 76% | 1020.6 hPa | 0 mm | - | 42 W/m² | - |
| 1788043542 | 28.89° C | 75% | 1020.6 hPa | 0 mm | - | 45 W/m² | - |
| 1788043241 | 28.89° C | 74% | 1020.6 hPa | 0 mm | - | 51 W/m² | - |
| 1788042937 | 28.89° C | 74% | 1020.5 hPa | 0 mm | - | 56 W/m² | - |
| 1788042627 | 28.89° C | 73% | 1020.3 hPa | 0 mm | - | 58 W/m² | - |
| 1788042326 | 28.89° C | 73% | 1020.5 hPa | 0 mm | - | 61 W/m² | - |
| 1788042021 | 29.44° C | 73% | 1020.2 hPa | 0 mm | - | 69 W/m² | - |
| 1788041717 | 29.44° C | 74% | 1020.3 hPa | 0 mm | - | 76 W/m² | - |
| 1788041412 | 30° C | 73% | 1020.4 hPa | 0 mm | - | 91 W/m² | - |
| 1788041110 | 30° C | 72% | 1020.4 hPa | 0 mm | - | 205 W/m² | - |
| 1788040805 | 30° C | 73% | 1020.3 hPa | 0 mm | - | 140 W/m² | - |
| 1788040498 | 30° C | 72% | 1020.3 hPa | 0 mm | - | 151 W/m² | - |
| 1788040195 | 30.56° C | 70% | 1020.6 hPa | 0 mm | - | 147 W/m² | - |
| 1788039894 | 30.56° C | 68% | 1020.3 hPa | 0 mm | - | 127 W/m² | - |
| 1788039589 | 30.56° C | 67% | 1020.4 hPa | 0 mm | - | 108 W/m² | - |
| 1788039284 | 31.11° C | 66% | 1020.3 hPa | 0 mm | - | 138 W/m² | - |
* Rain latest hour (hover to see other rain measurements)
** Current wind speed in m/s (hover to see current wind gust speed)